Tracking 18816 objects as of 18-October-2017
HD Live streaming from Space Station
objects crossing your sky now

ARIANE 5 R/B

Track ARIANE 5 R/B now!


NORAD ID: 29275
Int'l Code: 2006-033D
Perigee: 265.8 km
Apogee: 33,240.4 km
Inclination: 5.9 °
Period: 583.3 minutes
Semi major axis: 23124 km
RCS: 37.7588 m2 (large)
Launch date: August 11, 2006
Source: France (FR)
Launch site: FRENCH GUIANA (FRGUI)

Note: This is a ROCKET BODY
aabbcc
Your satellite tracking list
Your tracking list is empty





NASA's NSSDC Master Catalog

Two Line Element Set (TLE):
1 29275U 06033D   17291.39446497 +.00002774 +00000-0 +95232-3 0  9997
2 29275 005.8818 148.2479 7129925 080.5870 347.1055 02.46891759096916
Source of the keplerian elements: AFSPC